Time,TemperatureF,DewpointF,PressureIn,WindDirection,WindDirectionDegrees,WindSpeedMPH,WindSpeedGustMPH,Humidity,HourlyPrecipIn,Conditions,Clouds,dailyrainin,SolarRadiationWatts/m^2,SoftwareType,DateUTC
2013-05-15 00:00:00,71.0,62.7,29.02,SSE,157,3.0,3.0,75,0.00,,---,0.00,0.00,VWS V14.01,2013-05-15 04:00:00,
2013-05-15 00:11:00,71.0,62.7,29.03,SSE,157,0.0,4.0,75,0.00,,---,0.00,0.00,VWS V14.01,2013-05-15 04:11:00,
2013-05-15 00:16:00,71.0,62.7,29.03,South,180,2.0,6.0,75,0.00,,---,0.00,0.00,VWS V14.01,2013-05-15 04:16:00,
2013-05-15 00:21:00,71.0,62.7,29.02,South,180,3.0,4.0,75,0.00,,---,0.00,0.00,VWS V14.01,2013-05-15 04:21:00,
2013-05-15 00:26:00,71.0,62.7,29.02,South,180,3.0,5.0,75,0.00,,---,0.00,0.00,VWS V14.01,2013-05-15 04:26:00,
2013-05-15 00:31:00,71.0,62.7,29.02,SW,225,4.0,7.0,75,0.00,,---,0.00,0.00,VWS V14.01,2013-05-15 04:31:00,
2013-05-15 00:36:00,71.0,63.1,29.02,SSE,157,0.0,3.0,76,0.00,,---,0.00,0.00,VWS V14.01,2013-05-15 04:36:00,
2013-05-15 00:41:00,71.0,63.1,29.01,WSW,247,5.0,5.0,76,0.00,,---,0.00,0.00,VWS V14.01,2013-05-15 04:41:00,
2013-05-15 00:46:00,71.0,63.4,29.01,SSE,157,9.0,10.0,77,0.00,,---,0.00,0.00,VWS V14.01,2013-05-15 04:46:00,
2013-05-15 00:51:00,71.0,63.1,29.01,SE,135,0.0,4.0,76,0.00,,---,0.00,0.00,VWS V14.01,2013-05-15 04:51:00,
2013-05-15 00:56:00,71.0,62.7,29.01,SSW,202,0.0,4.0,75,0.00,,---,0.00,0.00,VWS V14.01,2013-05-15 04:56:00,
2013-05-15 01:01:00,71.0,63.1,29.01,SSW,202,3.0,5.0,76,0.00,,---,0.00,0.00,VWS V14.01,2013-05-15 05:01:00,
2013-05-15 01:06:00,70.0,62.5,29.01,South,180,1.0,3.0,77,0.00,,---,0.00,0.00,VWS V14.01,2013-05-15 05:06:00,
2013-05-15 01:11:00,71.0,63.1,29.01,SSW,202,0.0,5.0,76,0.00,,---,0.00,0.00,VWS V14.01,2013-05-15 05:11:00,
2013-05-15 01:16:00,70.0,62.5,29.01,SSW,202,5.0,7.0,77,0.00,,---,0.00,0.00,VWS V14.01,2013-05-15 05:16:00,
2013-05-15 01:21:00,70.0,62.5,29.00,SSW,202,0.0,4.0,77,0.00,,---,0.00,0.00,VWS V14.01,2013-05-15 05:21:00,
2013-05-15 01:26:00,70.0,62.5,29.00,SSW,202,4.0,6.0,77,0.00,,---,0.00,0.00,VWS V14.01,2013-05-15 05:26:00,
2013-05-15 01:31:00,70.0,62.8,29.00,West,270,4.0,6.0,78,0.00,,---,0.00,0.00,VWS V14.01,2013-05-15 05:31:00,
2013-05-15 01:36:00,71.0,63.4,29.00,SSW,202,4.0,6.0,77,0.00,,---,0.00,0.00,VWS V14.01,2013-05-15 05:36:00,
2013-05-15 01:41:00,70.0,62.8,28.99,NW,315,1.0,6.0,78,0.00,,---,0.00,0.00,VWS V14.01,2013-05-15 05:41:00,
2013-05-15 01:46:00,70.0,62.8,28.99,South,180,1.0,7.0,78,0.00,,---,0.00,0.00,VWS V14.01,2013-05-15 05:46:00,
2013-05-15 01:51:00,70.0,62.8,29.00,SSE,157,4.0,6.0,78,0.00,,---,0.00,0.00,VWS V14.01,2013-05-15 05:51:00,
2013-05-15 01:56:00,70.0,62.8,29.00,SSW,202,6.0,6.0,78,0.00,,---,0.00,0.00,VWS V14.01,2013-05-15 05:56:00,
2013-05-15 02:01:00,70.0,62.8,29.00,South,180,7.0,7.0,78,0.00,,---,0.00,0.00,VWS V14.01,2013-05-15 06:01:00,
2013-05-15 02:06:00,70.0,62.8,29.00,South,180,3.0,7.0,78,0.00,,---,0.00,0.00,VWS V14.01,2013-05-15 06:06:00,
2013-05-15 02:11:00,70.0,62.8,29.01,West,270,2.0,6.0,78,0.00,,---,0.00,0.00,VWS V14.01,2013-05-15 06:11:00,
2013-05-15 02:16:00,70.0,63.5,29.01,East,90,3.0,4.0,80,0.00,,---,0.00,0.00,VWS V14.01,2013-05-15 06:16:00,
2013-05-15 02:21:00,70.0,63.5,29.01,SSW,202,0.0,2.0,80,0.00,,---,0.00,0.00,VWS V14.01,2013-05-15 06:21:00,
2013-05-15 02:26:00,69.0,62.2,29.01,SSE,157,0.0,0.0,79,0.00,,---,0.00,0.00,VWS V14.01,2013-05-15 06:26:00,
2013-05-15 02:31:00,69.0,62.6,29.01,West,270,4.0,4.0,80,0.00,,---,0.00,0.00,VWS V14.01,2013-05-15 06:31:00,
2013-05-15 02:36:00,69.0,62.6,29.01,SSW,202,3.0,4.0,80,0.00,,---,0.00,0.00,VWS V14.01,2013-05-15 06:36:00,
2013-05-15 02:41:00,69.0,62.6,29.01,SW,225,0.0,8.0,80,0.00,,---,0.00,0.00,VWS V14.01,2013-05-15 06:41:00,
2013-05-15 02:46:00,69.0,62.6,29.01,West,270,0.0,2.0,80,0.00,,---,0.00,0.00,VWS V14.01,2013-05-15 06:46:00,
2013-05-15 02:51:00,69.0,62.6,29.01,NW,315,5.0,5.0,80,0.00,,---,0.00,0.00,VWS V14.01,2013-05-15 06:51:00,
2013-05-15 02:56:00,69.0,62.6,29.01,West,270,3.0,3.0,80,0.00,,---,0.00,0.00,VWS V14.01,2013-05-15 06:56:00,
2013-05-15 03:01:00,69.0,61.9,29.01,NNW,337,4.0,4.0,78,0.00,,---,0.00,0.00,VWS V14.01,2013-05-15 07:01:00,
2013-05-15 03:06:00,70.0,62.5,29.01,SSE,157,5.0,5.0,77,0.00,,---,0.00,0.00,VWS V14.01,2013-05-15 07:06:00,
2013-05-15 03:11:00,70.0,62.1,29.00,SSE,157,3.0,5.0,76,0.00,,---,0.00,0.00,VWS V14.01,2013-05-15 07:11:00,
2013-05-15 03:16:00,70.0,62.5,29.00,West,270,4.0,8.0,77,0.00,,---,0.00,0.00,VWS V14.01,2013-05-15 07:16:00,
2013-05-15 03:21:00,70.0,62.1,29.00,North,360,0.0,5.0,76,0.00,,---,0.00,0.00,VWS V14.01,2013-05-15 07:21:00,
2013-05-15 03:26:00,70.0,61.7,29.00,North,360,0.0,6.0,75,0.00,,---,0.00,0.00,VWS V14.01,2013-05-15 07:26:00,
2013-05-15 03:31:00,70.0,61.3,29.00,West,270,4.0,8.0,74,0.00,,---,0.00,0.00,VWS V14.01,2013-05-15 07:31:00,
2013-05-15 03:36:00,70.0,61.7,29.00,SSW,202,1.0,6.0,75,0.00,,---,0.00,0.00,VWS V14.01,2013-05-15 07:36:00,
2013-05-15 03:41:00,69.0,60.8,29.00,SSE,157,0.0,5.0,75,0.00,,---,0.00,0.00,VWS V14.01,2013-05-15 07:41:00,
2013-05-15 03:46:00,69.0,60.8,29.00,SSW,202,6.0,6.0,75,0.00,,---,0.00,0.00,VWS V14.01,2013-05-15 07:46:00,
2013-05-15 03:51:00,69.0,60.8,29.00,SE,135,0.0,0.0,75,0.00,,---,0.00,0.00,VWS V14.01,2013-05-15 07:51:00,
2013-05-15 03:56:00,69.0,60.4,29.00,SSW,202,1.0,5.0,74,0.00,,---,0.00,0.00,VWS V14.01,2013-05-15 07:56:00,
2013-05-15 04:01:00,70.0,60.6,29.00,West,270,0.0,3.0,72,0.00,,---,0.00,0.00,VWS V14.01,2013-05-15 08:01:00,
2013-05-15 04:06:00,70.0,60.2,29.00,SE,135,1.0,1.0,71,0.00,,---,0.00,0.00,VWS V14.01,2013-05-15 08:06:00,
2013-05-15 04:12:00,70.0,59.8,29.00,WSW,247,0.0,4.0,70,0.00,,---,0.00,0.00,VWS V14.01,2013-05-15 08:12:00,
2013-05-15 04:17:00,70.0,59.8,29.00,WSW,247,4.0,4.0,70,0.00,,---,0.00,0.00,VWS V14.01,2013-05-15 08:17:00,
2013-05-15 04:22:00,70.0,59.8,29.00,NE,45,0.0,3.0,70,0.00,,---,0.00,0.00,VWS V14.01,2013-05-15 08:22:00,
2013-05-15 04:27:00,70.0,59.4,29.00,WNW,292,2.0,4.0,69,0.00,,---,0.00,0.00,VWS V14.01,2013-05-15 08:27:00,
2013-05-15 04:32:00,70.0,59.4,28.99,SSE,157,3.0,3.0,69,0.00,,---,0.00,0.00,VWS V14.01,2013-05-15 08:32:00,
2013-05-15 04:37:00,70.0,59.4,28.99,WSW,247,3.0,4.0,69,0.00,,---,0.00,0.00,VWS V14.01,2013-05-15 08:37:00,
2013-05-15 04:42:00,70.0,59.4,29.00,WSW,247,4.0,5.0,69,0.00,,---,0.00,0.00,VWS V14.01,2013-05-15 08:42:00,
2013-05-15 04:47:00,70.0,59.4,29.00,West,270,0.0,8.0,69,0.00,,---,0.00,0.00,VWS V14.01,2013-05-15 08:47:00,
2013-05-15 04:52:00,70.0,59.8,29.00,SSE,157,0.0,1.0,70,0.00,,---,0.00,0.00,VWS V14.01,2013-05-15 08:52:00,
2013-05-15 04:57:00,69.0,58.8,29.00,SW,225,6.0,7.0,70,0.00,,---,0.00,0.00,VWS V14.01,2013-05-15 08:57:00,
2013-05-15 05:02:00,69.0,58.8,29.01,North,360,3.0,3.0,70,0.00,,---,0.00,0.00,VWS V14.01,2013-05-15 09:02:00,
2013-05-15 05:07:00,69.0,58.8,29.01,SE,135,0.0,6.0,70,0.00,,---,0.00,0.00,VWS V14.01,2013-05-15 09:07:00,
2013-05-15 05:12:00,69.0,58.8,29.01,SSW,202,1.0,5.0,70,0.00,,---,0.00,0.00,VWS V14.01,2013-05-15 09:12:00,
2013-05-15 05:17:00,69.0,59.2,29.01,South,180,4.0,5.0,71,0.00,,---,0.00,0.00,VWS V14.01,2013-05-15 09:17:00,
2013-05-15 05:22:00,69.0,59.2,29.01,South,180,3.0,4.0,71,0.00,,---,0.00,0.00,VWS V14.01,2013-05-15 09:22:00,
2013-05-15 05:27:00,69.0,59.6,29.01,West,270,1.0,6.0,72,0.00,,---,0.00,0.00,VWS V14.01,2013-05-15 09:27:00,
2013-05-15 05:32:00,69.0,59.6,29.01,SSE,157,3.0,5.0,72,0.00,,---,0.00,0.00,VWS V14.01,2013-05-15 09:32:00,
2013-05-15 05:37:00,68.0,58.7,29.01,South,180,0.0,5.0,72,0.00,,---,0.00,0.00,VWS V14.01,2013-05-15 09:37:00,
2013-05-15 05:42:00,68.0,58.7,29.01,WNW,292,0.0,6.0,72,0.00,,---,0.00,0.00,VWS V14.01,2013-05-15 09:42:00,
2013-05-15 05:47:00,68.0,58.3,29.01,SW,225,2.0,6.0,71,0.00,,---,0.00,0.00,VWS V14.01,2013-05-15 09:47:00,
2013-05-15 05:52:00,68.0,58.3,29.01,SSW,202,0.0,3.0,71,0.00,,---,0.00,0.00,VWS V14.01,2013-05-15 09:52:00,
2013-05-15 05:57:00,68.0,57.9,29.01,SSW,202,4.0,6.0,70,0.00,,---,0.00,0.00,VWS V14.01,2013-05-15 09:57:00,
2013-05-15 06:02:00,69.0,58.8,29.01,SSW,202,4.0,8.0,70,0.00,,---,0.00,0.00,VWS V14.01,2013-05-15 10:02:00,
2013-05-15 06:07:00,69.0,58.0,29.01,South,180,3.0,6.0,68,0.00,,---,0.00,0.00,VWS V14.01,2013-05-15 10:07:00,
2013-05-15 06:12:00,69.0,58.0,29.01,NW,315,0.0,4.0,68,0.00,,---,0.00,0.00,VWS V14.01,2013-05-15 10:12:00,
2013-05-15 06:17:00,69.0,57.6,29.01,SSW,202,4.0,5.0,67,0.00,,---,0.00,0.00,VWS V14.01,2013-05-15 10:17:00,
2013-05-15 06:23:00,69.0,57.6,29.01,SW,225,3.0,4.0,67,0.00,,---,0.00,0.00,VWS V14.01,2013-05-15 10:23:00,
2013-05-15 06:28:00,69.0,57.6,29.01,SSE,157,1.0,6.0,67,0.00,,---,0.00,0.00,VWS V14.01,2013-05-15 10:28:00,
2013-05-15 06:33:00,69.0,57.6,29.02,NNW,337,0.0,5.0,67,0.00,,---,0.00,0.00,VWS V14.01,2013-05-15 10:33:00,
2013-05-15 06:38:00,69.0,57.6,29.02,SSW,202,2.0,3.0,67,0.00,,---,0.00,0.00,VWS V14.01,2013-05-15 10:38:00,
2013-05-15 06:43:00,69.0,58.0,29.02,SW,225,0.0,8.0,68,0.00,,---,0.00,0.00,VWS V14.01,2013-05-15 10:43:00,
2013-05-15 06:48:00,69.0,58.0,29.02,SSE,157,3.0,8.0,68,0.00,,---,0.00,0.00,VWS V14.01,2013-05-15 10:48:00,
2013-05-15 06:53:00,69.0,57.6,29.02,West,270,3.0,7.0,67,0.00,,---,0.00,0.00,VWS V14.01,2013-05-15 10:53:00,
2013-05-15 06:58:00,69.0,57.6,29.02,ENE,67,2.0,7.0,67,0.00,,---,0.00,0.00,VWS V14.01,2013-05-15 10:58:00,
2013-05-15 07:03:00,69.0,57.6,29.02,West,270,0.0,6.0,67,0.00,,---,0.00,0.00,VWS V14.01,2013-05-15 11:03:00,
2013-05-15 07:08:00,69.0,57.6,29.02,WSW,247,1.0,3.0,67,0.00,,---,0.00,0.00,VWS V14.01,2013-05-15 11:08:00,
2013-05-15 07:13:00,69.0,57.2,29.03,South,180,5.0,7.0,66,0.00,,---,0.00,0.00,VWS V14.01,2013-05-15 11:13:00,
2013-05-15 07:18:00,69.0,57.2,29.03,South,180,0.0,8.0,66,0.00,,---,0.00,0.00,VWS V14.01,2013-05-15 11:18:00,
2013-05-15 07:23:00,70.0,58.1,29.03,West,270,4.0,6.0,66,0.00,,---,0.00,0.00,VWS V14.01,2013-05-15 11:23:00,
2013-05-15 07:29:00,70.0,57.7,29.03,South,180,2.0,6.0,65,0.00,,---,0.00,0.00,VWS V14.01,2013-05-15 11:29:00,
2013-05-15 07:34:00,70.0,57.7,29.04,South,180,2.0,9.0,65,0.00,,---,0.00,0.00,VWS V14.01,2013-05-15 11:34:00,
2013-05-15 07:39:00,70.0,58.1,29.04,SE,135,5.0,5.0,66,0.00,,---,0.00,0.00,VWS V14.01,2013-05-15 11:39:00,
2013-05-15 07:44:00,70.0,58.1,29.04,South,180,3.0,10.0,66,0.00,,---,0.00,0.00,VWS V14.01,2013-05-15 11:44:00,
2013-05-15 07:49:00,70.0,57.7,29.04,WSW,247,4.0,9.0,65,0.00,,---,0.00,0.00,VWS V14.01,2013-05-15 11:49:00,
2013-05-15 07:54:00,70.0,58.1,29.05,WSW,247,0.0,4.0,66,0.00,,---,0.00,0.00,VWS V14.01,2013-05-15 11:54:00,
2013-05-15 07:59:00,71.0,58.7,29.05,South,180,6.0,10.0,65,0.00,,---,0.00,0.00,VWS V14.01,2013-05-15 11:59:00,
2013-05-15 08:04:00,71.0,58.7,29.05,WNW,292,3.0,5.0,65,0.00,,---,0.00,0.00,VWS V14.01,2013-05-15 12:04:00,
2013-05-15 08:10:00,71.0,59.1,29.05,South,180,0.0,3.0,66,0.00,,---,0.00,0.00,VWS V14.01,2013-05-15 12:10:00,
2013-05-15 08:15:00,72.0,58.7,29.04,SSE,157,0.0,1.0,63,0.00,,---,0.00,0.00,VWS V14.01,2013-05-15 12:15:00,
2013-05-15 08:20:00,72.0,57.8,29.05,South,180,2.0,6.0,61,0.00,,---,0.00,0.00,VWS V14.01,2013-05-15 12:20:00,
2013-05-15 08:25:00,72.0,57.8,29.05,South,180,3.0,7.0,61,0.00,,---,0.00,0.00,VWS V14.01,2013-05-15 12:25:00,
2013-05-15 08:30:00,73.0,59.7,29.04,SSE,157,5.0,6.0,63,0.00,,---,0.00,0.00,VWS V14.01,2013-05-15 12:30:00,
2013-05-15 08:35:00,73.0,58.8,29.04,South,180,4.0,4.0,61,0.00,,---,0.00,0.00,VWS V14.01,2013-05-15 12:35:00,
2013-05-15 08:40:00,73.0,58.3,29.03,East,90,0.0,7.0,60,0.00,,---,0.00,0.00,VWS V14.01,2013-05-15 12:40:00,
2013-05-15 08:45:00,74.0,59.2,29.03,West,270,0.0,4.0,60,0.00,,---,0.00,0.00,VWS V14.01,2013-05-15 12:45:00,
2013-05-15 08:50:00,74.0,59.7,29.03,WNW,292,5.0,6.0,61,0.00,,---,0.00,0.00,VWS V14.01,2013-05-15 12:50:00,
2013-05-15 08:55:00,74.0,59.2,29.03,NNW,337,5.0,10.0,60,0.00,,---,0.00,0.00,VWS V14.01,2013-05-15 12:55:00,
2013-05-15 09:00:00,75.0,60.2,29.02,WNW,292,0.0,6.0,60,0.00,,---,0.00,0.00,VWS V14.01,2013-05-15 13:00:00,
2013-05-15 09:05:00,75.0,60.2,29.02,WNW,292,0.0,5.0,60,0.00,,---,0.00,0.00,VWS V14.01,2013-05-15 13:05:00,
2013-05-15 09:10:00,75.0,59.7,29.03,WNW,292,2.0,5.0,59,0.00,,---,0.00,0.00,VWS V14.01,2013-05-15 13:10:00,
2013-05-15 09:15:00,76.0,61.1,29.03,WNW,292,1.0,1.0,60,0.00,,---,0.00,0.00,VWS V14.01,2013-05-15 13:15:00,
2013-05-15 09:20:00,76.0,59.2,29.02,NNE,22,0.0,1.0,56,0.00,,---,0.00,0.00,VWS V14.01,2013-05-15 13:20:00,
2013-05-15 09:25:00,76.0,59.2,29.02,SSE,157,0.0,5.0,56,0.00,,---,0.00,0.00,VWS V14.01,2013-05-15 13:25:00,
2013-05-15 09:30:00,77.0,61.1,28.97,WNW,292,2.0,3.0,58,0.00,,---,0.00,0.00,VWS V14.01,2013-05-15 13:30:00,
2013-05-15 09:35:00,77.0,59.1,28.97,NNW,337,3.0,5.0,54,0.00,,---,0.00,0.00,VWS V14.01,2013-05-15 13:35:00,
2013-05-15 09:41:00,77.0,58.6,28.96,South,180,0.0,6.0,53,0.00,,---,0.00,0.00,VWS V14.01,2013-05-15 13:41:00,
2013-05-15 09:46:00,77.0,59.1,28.96,West,270,0.0,3.0,54,0.00,,---,0.00,0.00,VWS V14.01,2013-05-15 13:46:00,
2013-05-15 09:51:00,78.0,61.5,28.95,West,270,0.0,6.0,57,0.00,,---,0.00,0.00,VWS V14.01,2013-05-15 13:51:00,
2013-05-15 09:56:00,78.0,60.5,28.95,SSW,202,4.0,7.0,55,0.00,,---,0.00,0.00,VWS V14.01,2013-05-15 13:56:00,
2013-05-15 10:01:00,78.0,59.5,28.93,West,270,1.0,5.0,53,0.00,,---,0.00,0.00,VWS V14.01,2013-05-15 14:01:00,
2013-05-15 10:06:00,78.0,59.5,28.93,West,270,6.0,6.0,53,0.00,,---,0.00,0.00,VWS V14.01,2013-05-15 14:06:00,
2013-05-15 10:11:00,78.0,59.0,28.93,North,360,3.0,11.0,52,0.00,,---,0.00,0.00,VWS V14.01,2013-05-15 14:11:00,
2013-05-15 10:16:00,79.0,59.3,28.93,WNW,292,4.0,9.0,51,0.00,,---,0.00,0.00,VWS V14.01,2013-05-15 14:16:00,
2013-05-15 10:21:00,79.0,60.4,28.94,West,270,0.0,9.0,53,0.00,,---,0.00,0.00,VWS V14.01,2013-05-15 14:21:00,
2013-05-15 10:26:00,79.0,58.8,28.94,West,270,2.0,7.0,50,0.00,,---,0.00,0.00,VWS V14.01,2013-05-15 14:26:00,
2013-05-15 10:31:00,79.0,58.2,28.95,SW,225,3.0,5.0,49,0.00,,---,0.00,0.00,VWS V14.01,2013-05-15 14:31:00,
2013-05-15 10:36:00,79.0,59.3,28.95,SW,225,6.0,9.0,51,0.00,,---,0.00,0.00,VWS V14.01,2013-05-15 14:36:00,
2013-05-15 10:41:00,80.0,60.3,28.96,North,360,2.0,3.0,51,0.00,,---,0.00,0.00,VWS V14.01,2013-05-15 14:41:00,
2013-05-15 10:46:00,80.0,60.3,28.96,WSW,247,0.0,6.0,51,0.00,,---,0.00,0.00,VWS V14.01,2013-05-15 14:46:00,
2013-05-15 10:51:00,79.0,59.3,28.98,SW,225,7.0,7.0,51,0.00,,---,0.00,0.00,VWS V14.01,2013-05-15 14:51:00,
2013-05-15 10:56:00,79.0,58.8,28.98,NE,45,2.0,6.0,50,0.00,,---,0.00,0.00,VWS V14.01,2013-05-15 14:56:00,
2013-05-15 11:02:00,79.0,58.8,28.97,WNW,292,1.0,7.0,50,0.00,,---,0.00,0.00,VWS V14.01,2013-05-15 15:02:00,
2013-05-15 11:07:00,79.0,58.8,28.97,WNW,292,2.0,8.0,50,0.00,,---,0.00,0.00,VWS V14.01,2013-05-15 15:07:00,
2013-05-15 11:12:00,79.0,59.3,28.97,SSW,202,2.0,6.0,51,0.00,,---,0.00,0.00,VWS V14.01,2013-05-15 15:12:00,
2013-05-15 11:17:00,80.0,61.3,28.97,ENE,67,0.0,8.0,53,0.00,,---,0.00,0.00,VWS V14.01,2013-05-15 15:17:00,
2013-05-15 11:22:00,80.0,60.3,28.98,SSW,202,2.0,4.0,51,0.00,,---,0.00,0.00,VWS V14.01,2013-05-15 15:22:00,
2013-05-15 11:27:00,80.0,60.3,28.98,WNW,292,2.0,8.0,51,0.00,,---,0.00,0.00,VWS V14.01,2013-05-15 15:27:00,
2013-05-15 11:32:00,80.0,60.3,28.98,WNW,292,1.0,5.0,51,0.00,,---,0.00,0.00,VWS V14.01,2013-05-15 15:32:00,
2013-05-15 11:37:00,80.0,60.8,28.98,West,270,2.0,7.0,52,0.00,,---,0.00,0.00,VWS V14.01,2013-05-15 15:37:00,
2013-05-15 11:42:00,80.0,62.4,28.99,ESE,112,0.0,5.0,55,0.00,,---,0.00,0.00,VWS V14.01,2013-05-15 15:42:00,
2013-05-15 11:47:00,81.0,61.2,28.99,North,360,6.0,6.0,51,0.00,,---,0.00,0.00,VWS V14.01,2013-05-15 15:47:00,
2013-05-15 11:52:00,80.0,61.3,28.99,WSW,247,3.0,10.0,53,0.00,,---,0.00,0.00,VWS V14.01,2013-05-15 15:52:00,
2013-05-15 11:57:00,80.0,61.3,28.99,WNW,292,0.0,8.0,53,0.00,,---,0.00,0.00,VWS V14.01,2013-05-15 15:57:00,
2013-05-15 12:02:00,81.0,60.6,28.99,WNW,292,0.0,6.0,50,0.00,,---,0.00,0.00,VWS V14.01,2013-05-15 16:02:00,
2013-05-15 12:07:00,81.0,62.3,28.99,SSE,157,4.0,10.0,53,0.00,,---,0.00,0.00,VWS V14.01,2013-05-15 16:07:00,
2013-05-15 12:12:00,81.0,61.2,28.99,North,360,3.0,3.0,51,0.00,,---,0.00,0.00,VWS V14.01,2013-05-15 16:12:00,
2013-05-15 12:17:00,81.0,61.2,28.99,SW,225,1.0,4.0,51,0.00,,---,0.00,0.00,VWS V14.01,2013-05-15 16:17:00,
2013-05-15 12:22:00,82.0,62.7,28.99,ESE,112,0.0,3.0,52,0.00,,---,0.00,0.00,VWS V14.01,2013-05-15 16:22:00,
2013-05-15 12:27:00,81.0,61.7,28.99,West,270,3.0,9.0,52,0.00,,---,0.00,0.00,VWS V14.01,2013-05-15 16:27:00,
2013-05-15 12:32:00,81.0,60.1,28.98,WSW,247,3.0,10.0,49,0.00,,---,0.00,0.00,VWS V14.01,2013-05-15 16:32:00,
2013-05-15 12:37:00,82.0,61.5,28.98,WNW,292,0.0,7.0,50,0.00,,---,0.00,0.00,VWS V14.01,2013-05-15 16:37:00,
2013-05-15 12:42:00,82.0,61.5,28.99,SW,225,3.0,4.0,50,0.00,,---,0.00,0.00,VWS V14.01,2013-05-15 16:42:00,
2013-05-15 12:48:00,82.0,62.7,28.99,NNE,22,0.0,2.0,52,0.00,,---,0.00,0.00,VWS V14.01,2013-05-15 16:48:00,
2013-05-15 12:53:00,83.0,63.0,28.98,SSE,157,5.0,8.0,51,0.00,,---,0.00,0.00,VWS V14.01,2013-05-15 16:53:00,
2013-05-15 12:58:00,83.0,61.9,28.98,North,360,0.0,4.0,49,0.00,,---,0.00,0.00,VWS V14.01,2013-05-15 16:58:00,
2013-05-15 13:03:00,83.0,61.9,28.97,NNE,22,0.0,7.0,49,0.00,,---,0.00,0.00,VWS V14.01,2013-05-15 17:03:00,
2013-05-15 13:08:00,83.0,65.2,28.97,South,180,2.0,8.0,55,0.00,,---,0.00,0.00,VWS V14.01,2013-05-15 17:08:00,
2013-05-15 13:13:00,83.0,61.9,28.97,SW,225,3.0,5.0,49,0.00,,---,0.00,0.00,VWS V14.01,2013-05-15 17:13:00,
2013-05-15 13:18:00,83.0,61.9,28.97,NE,45,0.0,5.0,49,0.00,,---,0.00,0.00,VWS V14.01,2013-05-15 17:18:00,
2013-05-15 13:23:00,83.0,60.7,28.96,SSW,202,3.0,3.0,47,0.00,,---,0.00,0.00,VWS V14.01,2013-05-15 17:23:00,
2013-05-15 13:29:00,84.0,61.6,28.96,NNE,22,0.0,9.0,47,0.00,,---,0.00,0.00,VWS V14.01,2013-05-15 17:29:00,
2013-05-15 13:34:00,83.0,61.9,28.95,SSE,157,4.0,8.0,49,0.00,,---,0.00,0.00,VWS V14.01,2013-05-15 17:34:00,
2013-05-15 13:39:00,84.0,65.1,28.95,SSW,202,3.0,8.0,53,0.00,,---,0.00,0.00,VWS V14.01,2013-05-15 17:39:00,
2013-05-15 13:44:00,84.0,63.9,28.95,WNW,292,0.0,0.0,51,0.00,,---,0.00,0.00,VWS V14.01,2013-05-15 17:44:00,
2013-05-15 13:49:00,83.0,61.9,28.95,South,180,5.0,6.0,49,0.00,,---,0.00,0.00,VWS V14.01,2013-05-15 17:49:00,
2013-05-15 13:54:00,83.0,61.9,28.95,SW,225,9.0,10.0,49,0.00,,---,0.00,0.00,VWS V14.01,2013-05-15 17:54:00,
2013-05-15 13:59:00,83.0,62.5,28.95,SSW,202,2.0,4.0,50,0.00,,---,0.00,0.00,VWS V14.01,2013-05-15 17:59:00,
2013-05-15 14:05:00,83.0,61.9,28.97,SE,135,3.0,9.0,49,0.00,,---,0.00,0.00,VWS V14.01,2013-05-15 18:05:00,
2013-05-15 14:10:00,82.0,61.0,28.97,SSE,157,0.0,15.0,49,0.00,,---,0.00,0.00,VWS V14.01,2013-05-15 18:10:00,
2013-05-15 14:15:00,82.0,61.0,28.97,SSW,202,0.0,5.0,49,0.00,,---,0.00,0.00,VWS V14.01,2013-05-15 18:15:00,
2013-05-15 14:20:00,83.0,63.6,28.97,SSW,202,3.0,5.0,52,0.00,,---,0.00,0.00,VWS V14.01,2013-05-15 18:20:00,
2013-05-15 14:25:00,83.0,61.9,28.97,SW,225,6.0,13.0,49,0.00,,---,0.00,0.00,VWS V14.01,2013-05-15 18:25:00,
2013-05-15 14:30:00,83.0,63.6,28.97,SSE,157,5.0,6.0,52,0.00,,---,0.00,0.00,VWS V14.01,2013-05-15 18:30:00,
2013-05-15 14:36:00,82.0,62.1,28.97,SSE,157,3.0,4.0,51,0.00,,---,0.00,0.00,VWS V14.01,2013-05-15 18:36:00,
2013-05-15 14:40:00,83.0,63.0,28.97,SE,135,0.0,7.0,51,0.00,,---,0.00,0.00,VWS V14.01,2013-05-15 18:40:00,
2013-05-15 14:46:00,83.0,62.5,28.97,NW,315,0.0,5.0,50,0.00,,---,0.00,0.00,VWS V14.01,2013-05-15 18:46:00,
2013-05-15 14:51:00,84.0,63.9,28.95,SSE,157,0.0,4.0,51,0.00,,---,0.00,0.00,VWS V14.01,2013-05-15 18:51:00,
2013-05-15 14:56:00,84.0,62.8,28.95,West,270,1.0,6.0,49,0.00,,---,0.00,0.00,VWS V14.01,2013-05-15 18:56:00,
2013-05-15 15:01:00,84.0,62.2,28.96,SSW,202,5.0,7.0,48,0.00,,---,0.00,0.00,VWS V14.01,2013-05-15 19:01:00,
2013-05-15 15:06:00,84.0,61.6,28.96,West,270,2.0,9.0,47,0.00,,---,0.00,0.00,VWS V14.01,2013-05-15 19:06:00,
2013-05-15 15:11:00,84.0,62.8,28.96,SSW,202,3.0,7.0,49,0.00,,---,0.00,0.00,VWS V14.01,2013-05-15 19:11:00,
2013-05-15 15:16:00,84.0,63.9,28.96,WNW,292,0.0,2.0,51,0.00,,---,0.00,0.00,VWS V14.01,2013-05-15 19:16:00,
2013-05-15 15:21:00,85.0,64.3,28.96,West,270,3.0,6.0,50,0.00,,---,0.00,0.00,VWS V14.01,2013-05-15 19:21:00,
2013-05-15 15:26:00,84.0,61.6,28.96,West,270,5.0,5.0,47,0.00,,---,0.00,0.00,VWS V14.01,2013-05-15 19:26:00,
2013-05-15 15:31:00,84.0,62.8,28.96,WNW,292,0.0,7.0,49,0.00,,---,0.00,0.00,VWS V14.01,2013-05-15 19:31:00,
2013-05-15 15:36:00,85.0,63.7,28.96,West,270,4.0,7.0,49,0.00,,---,0.00,0.00,VWS V14.01,2013-05-15 19:36:00,
2013-05-15 15:41:00,84.0,63.9,28.97,WSW,247,0.0,4.0,51,0.00,,---,0.00,0.00,VWS V14.01,2013-05-15 19:41:00,
2013-05-15 15:47:00,84.0,62.8,28.97,SSW,202,1.0,6.0,49,0.00,,---,0.00,0.00,VWS V14.01,2013-05-15 19:47:00,
2013-05-15 15:52:00,84.0,62.8,28.97,SSW,202,2.0,4.0,49,0.00,,---,0.00,0.00,VWS V14.01,2013-05-15 19:52:00,
2013-05-15 15:57:00,84.0,63.9,28.97,SE,135,0.0,0.0,51,0.00,,---,0.00,0.00,VWS V14.01,2013-05-15 19:57:00,
2013-05-15 16:03:00,83.0,63.0,28.97,WSW,247,2.0,4.0,51,0.00,,---,0.00,0.00,VWS V14.01,2013-05-15 20:03:00,
2013-05-15 16:08:00,83.0,63.6,28.97,South,180,4.0,5.0,52,0.00,,---,0.00,0.00,VWS V14.01,2013-05-15 20:08:00,
2013-05-15 16:13:00,83.0,64.1,28.97,WNW,292,0.0,5.0,53,0.00,,---,0.00,0.00,VWS V14.01,2013-05-15 20:13:00,
2013-05-15 16:18:00,83.0,62.5,28.97,SW,225,0.0,5.0,50,0.00,,---,0.00,0.00,VWS V14.01,2013-05-15 20:18:00,
2013-05-15 16:23:00,83.0,63.6,28.97,SSW,202,0.0,4.0,52,0.00,,---,0.00,0.00,VWS V14.01,2013-05-15 20:23:00,
2013-05-15 16:28:00,83.0,63.6,28.97,ENE,67,2.0,2.0,52,0.00,,---,0.00,0.00,VWS V14.01,2013-05-15 20:28:00,
2013-05-15 16:33:00,83.0,64.1,28.97,SW,225,0.0,0.0,53,0.00,,---,0.00,0.00,VWS V14.01,2013-05-15 20:33:00,
2013-05-15 16:38:00,83.0,64.7,28.97,West,270,0.0,0.0,54,0.00,,---,0.00,0.00,VWS V14.01,2013-05-15 20:38:00,
2013-05-15 16:43:00,83.0,63.6,28.96,SE,135,0.0,3.0,52,0.00,,---,0.00,0.00,VWS V14.01,2013-05-15 20:43:00,
2013-05-15 16:48:00,83.0,64.1,28.96,SE,135,3.0,6.0,53,0.00,,---,0.00,0.00,VWS V14.01,2013-05-15 20:48:00,
2013-05-15 16:54:00,82.0,62.7,28.97,South,180,1.0,4.0,52,0.00,,---,0.00,0.00,VWS V14.01,2013-05-15 20:54:00,
2013-05-15 16:59:00,82.0,62.7,28.97,SSW,202,2.0,7.0,52,0.00,,---,0.00,0.00,VWS V14.01,2013-05-15 20:59:00,
2013-05-15 17:04:00,82.0,63.7,28.97,WSW,247,0.0,3.0,54,0.00,,---,0.00,0.00,VWS V14.01,2013-05-15 21:04:00,
2013-05-15 17:09:00,82.0,63.7,28.97,SSW,202,4.0,5.0,54,0.00,,---,0.00,0.00,VWS V14.01,2013-05-15 21:09:00,
2013-05-15 17:14:00,82.0,63.7,28.96,SSW,202,2.0,4.0,54,0.00,,---,0.00,0.00,VWS V14.01,2013-05-15 21:14:00,
2013-05-15 17:19:00,82.0,63.7,28.96,SSW,202,3.0,7.0,54,0.00,,---,0.00,0.00,VWS V14.01,2013-05-15 21:19:00,
2013-05-15 17:25:00,82.0,63.7,28.97,SSW,202,1.0,5.0,54,0.00,,---,0.00,0.00,VWS V14.01,2013-05-15 21:25:00,
2013-05-15 17:30:00,82.0,63.7,28.97,WSW,247,0.0,0.0,54,0.00,,---,0.00,0.00,VWS V14.01,2013-05-15 21:30:00,
2013-05-15 17:35:00,82.0,63.7,28.96,NNE,22,2.0,3.0,54,0.00,,---,0.00,0.00,VWS V14.01,2013-05-15 21:35:00,
2013-05-15 17:40:00,82.0,63.7,28.96,SW,225,0.0,0.0,54,0.00,,---,0.00,0.00,VWS V14.01,2013-05-15 21:40:00,
2013-05-15 17:45:00,82.0,63.2,28.96,NW,315,0.0,4.0,53,0.00,,---,0.00,0.00,VWS V14.01,2013-05-15 21:45:00,
2013-05-15 17:50:00,82.0,63.2,28.96,North,360,0.0,0.0,53,0.00,,---,0.00,0.00,VWS V14.01,2013-05-15 21:50:00,
2013-05-15 17:55:00,82.0,64.8,28.96,SW,225,4.0,4.0,56,0.00,,---,0.00,0.00,VWS V14.01,2013-05-15 21:55:00,
2013-05-15 18:01:00,82.0,64.3,28.97,WSW,247,0.0,1.0,55,0.00,,---,0.00,0.00,VWS V14.01,2013-05-15 22:01:00,
2013-05-15 18:06:00,81.0,63.8,28.97,WNW,292,0.0,5.0,56,0.00,,---,0.00,0.00,VWS V14.01,2013-05-15 22:06:00,
2013-05-15 18:11:00,81.0,63.3,28.97,SSE,157,0.0,3.0,55,0.00,,---,0.00,0.00,VWS V14.01,2013-05-15 22:11:00,
2013-05-15 18:16:00,81.0,63.3,28.97,North,360,0.0,3.0,55,0.00,,---,0.00,0.00,VWS V14.01,2013-05-15 22:16:00,
2013-05-15 18:21:00,81.0,63.8,28.96,WSW,247,0.0,0.0,56,0.00,,---,0.00,0.00,VWS V14.01,2013-05-15 22:21:00,
2013-05-15 18:26:00,82.0,64.3,28.96,NNW,337,0.0,0.0,55,0.00,,---,0.00,0.00,VWS V14.01,2013-05-15 22:26:00,
2013-05-15 18:32:00,82.0,63.7,28.97,SSW,202,1.0,4.0,54,0.00,,---,0.00,0.00,VWS V14.01,2013-05-15 22:32:00,
2013-05-15 18:37:00,82.0,64.8,28.97,WNW,292,3.0,6.0,56,0.00,,---,0.00,0.00,VWS V14.01,2013-05-15 22:37:00,
2013-05-15 18:42:00,81.0,63.3,28.97,South,180,2.0,4.0,55,0.00,,---,0.00,0.00,VWS V14.01,2013-05-15 22:42:00,
2013-05-15 18:47:00,81.0,63.8,28.97,SE,135,0.0,3.0,56,0.00,,---,0.00,0.00,VWS V14.01,2013-05-15 22:47:00,
2013-05-15 18:52:00,81.0,63.8,28.97,South,180,0.0,0.0,56,0.00,,---,0.00,0.00,VWS V14.01,2013-05-15 22:52:00,
2013-05-15 18:57:00,81.0,64.3,28.97,WSW,247,4.0,4.0,57,0.00,,---,0.00,0.00,VWS V14.01,2013-05-15 22:57:00,
2013-05-15 19:02:00,81.0,63.8,28.98,ESE,112,0.0,0.0,56,0.00,,---,0.00,0.00,VWS V14.01,2013-05-15 23:02:00,
2013-05-15 19:07:00,81.0,63.8,28.98,NW,315,0.0,3.0,56,0.00,,---,0.00,0.00,VWS V14.01,2013-05-15 23:07:00,
2013-05-15 19:12:00,81.0,64.3,28.98,West,270,0.0,0.0,57,0.00,,---,0.00,0.00,VWS V14.01,2013-05-15 23:12:00,
2013-05-15 19:17:00,80.0,63.4,28.98,WSW,247,3.0,5.0,57,0.00,,---,0.00,0.00,VWS V14.01,2013-05-15 23:17:00,
2013-05-15 19:22:00,80.0,63.4,28.99,NNW,337,0.0,4.0,57,0.00,,---,0.00,0.00,VWS V14.01,2013-05-15 23:22:00,
2013-05-15 19:27:00,80.0,63.4,28.99,SW,225,5.0,5.0,57,0.00,,---,0.00,0.00,VWS V14.01,2013-05-15 23:27:00,
2013-05-15 19:32:00,80.0,63.4,29.00,SSE,157,0.0,3.0,57,0.00,,---,0.00,0.00,VWS V14.01,2013-05-15 23:32:00,
2013-05-15 19:38:00,80.0,64.4,29.00,South,180,0.0,2.0,59,0.00,,---,0.00,0.00,VWS V14.01,2013-05-15 23:38:00,
2013-05-15 19:43:00,80.0,64.4,29.00,East,90,0.0,0.0,59,0.00,,---,0.00,0.00,VWS V14.01,2013-05-15 23:43:00,
2013-05-15 19:48:00,80.0,64.4,29.00,WNW,292,0.0,5.0,59,0.00,,---,0.00,0.00,VWS V14.01,2013-05-15 23:48:00,
2013-05-15 19:54:00,80.0,64.4,28.99,ESE,112,0.0,0.0,59,0.00,,---,0.00,0.00,VWS V14.01,2013-05-15 23:54:00,
2013-05-15 19:59:00,79.0,63.0,28.99,SW,225,4.0,5.0,58,0.00,,---,0.00,0.00,VWS V14.01,2013-05-15 23:59:00,
2013-05-15 20:04:00,79.0,63.9,29.00,South,180,0.0,0.0,60,0.00,,---,0.00,0.00,VWS V14.01,2013-05-16 00:04:00,
2013-05-15 20:09:00,79.0,63.9,29.00,SW,225,2.0,3.0,60,0.00,,---,0.00,0.00,VWS V14.01,2013-05-16 00:09:00,
2013-05-15 20:15:00,79.0,63.9,29.01,SW,225,0.0,0.0,60,0.00,,---,0.00,0.00,VWS V14.01,2013-05-16 00:15:00,
2013-05-15 20:20:00,79.0,64.4,29.01,WSW,247,0.0,0.0,61,0.00,,---,0.00,0.00,VWS V14.01,2013-05-16 00:20:00,
2013-05-15 20:25:00,78.0,63.9,29.01,SSW,202,0.0,0.0,62,0.00,,---,0.00,0.00,VWS V14.01,2013-05-16 00:25:00,
2013-05-15 20:31:00,78.0,64.4,29.01,WNW,292,0.0,0.0,63,0.00,,---,0.00,0.00,VWS V14.01,2013-05-16 00:31:00,
2013-05-15 20:36:00,78.0,64.8,29.01,ESE,112,0.0,0.0,64,0.00,,---,0.00,0.00,VWS V14.01,2013-05-16 00:36:00,
2013-05-15 20:41:00,77.0,64.3,29.01,SSW,202,0.0,0.0,65,0.00,,---,0.00,0.00,VWS V14.01,2013-05-16 00:41:00,
2013-05-15 20:46:00,77.0,64.8,29.01,WSW,247,0.0,0.0,66,0.00,,---,0.00,0.00,VWS V14.01,2013-05-16 00:46:00,
2013-05-15 20:51:00,77.0,65.2,29.01,SSW,202,0.0,0.0,67,0.00,,---,0.00,0.00,VWS V14.01,2013-05-16 00:51:00,
2013-05-15 20:56:00,76.0,65.9,29.01,SE,135,0.0,0.0,71,0.00,,---,0.00,0.00,VWS V14.01,2013-05-16 00:56:00,
2013-05-15 21:01:00,76.0,65.5,29.01,SW,225,1.0,1.0,70,0.00,,---,0.00,0.00,VWS V14.01,2013-05-16 01:01:00,
2013-05-15 21:06:00,75.0,64.6,29.01,SW,225,0.0,0.0,70,0.00,,---,0.00,0.00,VWS V14.01,2013-05-16 01:06:00,
2013-05-15 21:12:00,75.0,65.0,29.01,SW,225,0.0,0.0,71,0.00,,---,0.00,0.00,VWS V14.01,2013-05-16 01:12:00,
2013-05-15 21:17:00,75.0,65.4,29.01,SW,225,0.0,0.0,72,0.00,,---,0.00,0.00,VWS V14.01,2013-05-16 01:17:00,
2013-05-15 21:22:00,75.0,65.8,29.01,South,180,0.0,0.0,73,0.00,,---,0.00,0.00,VWS V14.01,2013-05-16 01:22:00,
2013-05-15 21:27:00,74.0,64.8,29.01,SE,135,0.0,0.0,73,0.00,,---,0.00,0.00,VWS V14.01,2013-05-16 01:27:00,
2013-05-15 21:33:00,74.0,64.8,29.02,SSE,157,0.0,0.0,73,0.00,,---,0.00,0.00,VWS V14.01,2013-05-16 01:33:00,
2013-05-15 21:38:00,74.0,64.8,29.02,ESE,112,0.0,0.0,73,0.00,,---,0.00,0.00,VWS V14.01,2013-05-16 01:38:00,
2013-05-15 21:43:00,75.0,66.2,29.02,NNW,337,0.0,0.0,74,0.00,,---,0.00,0.00,VWS V14.01,2013-05-16 01:43:00,
2013-05-15 21:48:00,75.0,65.8,29.02,WSW,247,0.0,0.0,73,0.00,,---,0.00,0.00,VWS V14.01,2013-05-16 01:48:00,
2013-05-15 21:53:00,75.0,66.6,29.03,West,270,0.0,2.0,75,0.00,,---,0.00,0.00,VWS V14.01,2013-05-16 01:53:00,
2013-05-15 21:58:00,75.0,66.6,29.03,SSW,202,0.0,3.0,75,0.00,,---,0.00,0.00,VWS V14.01,2013-05-16 01:58:00,
2013-05-15 22:03:00,75.0,66.2,29.03,South,180,0.0,0.0,74,0.00,,---,0.00,0.00,VWS V14.01,2013-05-16 02:03:00,
2013-05-15 22:08:00,75.0,66.2,29.03,SSW,202,0.0,3.0,74,0.00,,---,0.00,0.00,VWS V14.01,2013-05-16 02:08:00,
2013-05-15 22:13:00,75.0,66.2,29.03,WSW,247,3.0,3.0,74,0.00,,---,0.00,0.00,VWS V14.01,2013-05-16 02:13:00,
2013-05-15 22:18:00,75.0,66.2,29.03,NNW,337,0.0,0.0,74,0.00,,---,0.00,0.00,VWS V14.01,2013-05-16 02:18:00,
2013-05-15 22:23:00,75.0,65.8,29.02,NW,315,0.0,3.0,73,0.00,,---,0.00,0.00,VWS V14.01,2013-05-16 02:23:00,
2013-05-15 22:28:00,75.0,66.9,29.02,NW,315,0.0,0.0,76,0.00,,---,0.00,0.00,VWS V14.01,2013-05-16 02:28:00,
2013-05-15 22:33:00,73.0,67.2,29.02,SSE,157,0.0,0.0,82,0.00,,---,0.00,0.00,VWS V14.01,2013-05-16 02:33:00,
2013-05-15 22:40:00,72.0,67.9,29.02,NW,315,0.0,0.0,87,0.00,,---,0.00,0.00,VWS V14.01,2013-05-16 02:40:00,
2013-05-15 22:45:00,72.0,69.2,29.04,WNW,292,0.0,2.0,91,0.00,,---,0.00,0.00,VWS V14.01,2013-05-16 02:45:00,
2013-05-15 22:50:00,71.0,69.5,29.04,NNW,337,0.0,2.0,95,0.00,,---,0.00,0.00,VWS V14.01,2013-05-16 02:50:00,
2013-05-15 22:55:00,71.0,69.2,29.05,West,270,0.0,1.0,94,0.01,,---,0.01,0.00,VWS V14.01,2013-05-16 02:55:00,
2013-05-15 23:00:00,70.0,69.7,29.05,North,360,2.0,3.0,99,0.01,,---,0.01,0.00,VWS V14.01,2013-05-16 03:00:00,
2013-05-15 23:01:00,68.0,68.0,29.06,East,90,0.0,3.0,100,0.07,,---,0.08,0.00,VWS V14.01,2013-05-16 03:01:00,
2013-05-15 23:02:00,68.0,68.0,29.06,WSW,247,0.0,3.0,100,0.07,,---,0.08,0.00,VWS V14.01,2013-05-16 03:02:00,
2013-05-15 23:03:00,68.0,68.0,29.06,WSW,247,1.0,2.0,100,0.07,,---,0.08,0.00,VWS V14.01,2013-05-16 03:03:00,
2013-05-15 23:04:00,68.0,68.0,29.06,West,270,0.0,0.0,100,0.06,,---,0.08,0.00,VWS V14.01,2013-05-16 03:04:00,
2013-05-15 23:05:00,70.0,69.7,29.07,WSW,247,1.0,3.0,99,0.02,,---,0.02,0.00,VWS V14.01,2013-05-16 03:05:00,
2013-05-15 23:06:00,68.0,68.0,29.06,WNW,292,0.0,0.0,100,0.06,,---,0.08,0.00,VWS V14.01,2013-05-16 03:06:00,
2013-05-15 23:07:00,68.0,68.0,29.06,SSW,202,0.0,3.0,100,0.06,,---,0.08,0.00,VWS V14.01,2013-05-16 03:07:00,
2013-05-15 23:08:00,68.0,68.0,29.06,SSW,202,0.0,0.0,100,0.06,,---,0.08,0.00,VWS V14.01,2013-05-16 03:08:00,
2013-05-15 23:09:00,68.0,68.0,29.06,SW,225,0.0,2.0,100,0.04,,---,0.08,0.00,VWS V14.01,2013-05-16 03:09:00,
2013-05-15 23:10:00,69.0,69.0,29.06,WNW,292,0.0,0.0,100,0.07,,---,0.07,0.00,VWS V14.01,2013-05-16 03:10:00,
2013-05-15 23:11:00,68.0,68.0,29.06,SSW,202,0.0,0.0,100,0.01,,---,0.08,0.00,VWS V14.01,2013-05-16 03:11:00,
2013-05-15 23:12:00,68.0,68.0,29.06,SW,225,0.0,3.0,100,0.01,,---,0.08,0.00,VWS V14.01,2013-05-16 03:12:00,
2013-05-15 23:13:00,68.0,68.0,29.06,SE,135,0.0,2.0,100,0.01,,---,0.08,0.00,VWS V14.01,2013-05-16 03:13:00,
2013-05-15 23:14:00,68.0,68.0,29.06,WSW,247,2.0,4.0,100,0.00,,---,0.08,0.00,VWS V14.01,2013-05-16 03:14:00,
2013-05-15 23:15:00,68.0,68.0,29.06,West,270,0.0,0.0,100,0.08,,---,0.08,0.00,VWS V14.01,2013-05-16 03:15:00,
2013-05-15 23:16:00,68.0,68.0,29.06,SE,135,0.0,0.0,100,0.00,,---,0.08,0.00,VWS V14.01,2013-05-16 03:16:00,
2013-05-15 23:17:00,68.0,68.0,29.06,WSW,247,0.0,0.0,100,0.00,,---,0.08,0.00,VWS V14.01,2013-05-16 03:17:00,
2013-05-15 23:19:00,68.0,68.0,29.06,WNW,292,0.0,1.0,100,0.00,,---,0.08,0.00,VWS V14.01,2013-05-16 03:19:00,
2013-05-15 23:20:00,68.0,68.0,29.05,WNW,292,0.0,0.0,100,0.08,,---,0.08,0.00,VWS V14.01,2013-05-16 03:20:00,
2013-05-15 23:21:00,68.0,68.0,29.06,SSW,202,0.0,0.0,100,0.00,,---,0.08,0.00,VWS V14.01,2013-05-16 03:21:00,
2013-05-15 23:22:00,68.0,68.0,29.06,WNW,292,0.0,0.0,100,0.00,,---,0.08,0.00,VWS V14.01,2013-05-16 03:22:00,
2013-05-15 23:25:00,68.0,68.0,29.06,NE,45,0.0,0.0,100,0.00,,---,0.08,0.00,VWS V14.01,2013-05-16 03:25:00,
2013-05-15 23:27:00,67.0,67.0,29.05,SW,225,0.0,0.0,100,0.08,,---,0.08,0.00,VWS V14.01,2013-05-16 03:27:00,
2013-05-15 23:32:00,67.0,67.0,29.05,ENE,67,0.0,4.0,100,0.08,,---,0.08,0.00,VWS V14.01,2013-05-16 03:32:00,
2013-05-15 23:37:00,67.0,67.0,29.05,NNW,337,0.0,0.0,100,0.08,,---,0.08,0.00,VWS V14.01,2013-05-16 03:37:00,
2013-05-15 23:42:00,67.0,67.0,29.05,WNW,292,0.0,2.0,100,0.08,,---,0.08,0.00,VWS V14.01,2013-05-16 03:42:00,
2013-05-15 23:47:00,68.0,68.0,29.05,SW,225,4.0,5.0,100,0.08,,---,0.08,0.00,VWS V14.01,2013-05-16 03:47:00,
2013-05-15 23:52:00,68.0,68.0,29.05,West,270,1.0,4.0,100,0.08,,---,0.08,0.00,VWS V14.01,2013-05-16 03:52:00,
2013-05-15 23:57:00,68.0,68.0,29.05,SSE,157,0.0,3.0,100,0.07,,---,0.08,0.00,VWS V14.01,2013-05-16 03:57:00,